Home > Weather > Miskolc > Past weeks

Flag for Hungary Weather for the Past 2 Weeks in Miskolc, Hungary

Now
44 °F

Passing clouds.


Feels Like: 43 °F
Forecast: 40 / 49 °F
Wind: 3 mph from Southeast

Location: Miskolc

Current Time: Feb 9, 2016 at 7:45:52 AM

Latest Report: Feb 9, 2016 at 5:00 AM


Visibility: 16 mi

Pressure: 29.87 "Hg

Humidity: 82%

Dew point: 39 °F

Location of MiskolcLocation

Historic Weather in Miskolc — Graph

°F

Miskolc Temperature Yesterday

Maximum temperature yesterday: 45 °F (at 9:00 PM)
Minimum temperature yesterday: 32 °F (at 5:00 AM)
Average temperature yesterday: 38 °F

High & Low Weather Summary for the Past Weeks

 TemperatureHumidityPressure
High53 °F (Feb 3, 1:00 PM)91% (Jan 26, 7:00 AM)30.53 "Hg (Jan 26, 7:00 AM)
Low26 °F (Jan 25, 5:00 AM)40% (Feb 4, 2:00 PM)29.82 "Hg (Jan 31, 7:00 AM)
Average36 °F80%30.20 "Hg
* Reported Jan 25 5:00 AM — Feb 9 5:00 AM, Miskolc, Weather by CustomWeather, © 2016

Note: Actual official high and low records may vary slightly from our data, if they occured in-between our weather recording intervals... More about our weather records

Advertising

Miskolc Weather History for the Previous 24 Hours

 ConditionsComfort  
Time TempWeatherWind HumidityBarometerVisibility
5:00 AM
Tue, Feb 9
44 °FPassing clouds.3 mph82%29.87 "Hg16 mi
4:00 AM44 °FOvercast.5 mph82%29.85 "Hg12 mi
10:00 PM
Mon, Feb 8
45 °FOvercast.2 mph79%29.94 "Hg6 mi
9:00 PM45 °FOvercast.2 mph81%29.94 "Hg6 mi
8:00 PM45 °FLight rain. Overcast.5 mph83%29.95 "Hg4 mi
7:00 PM40 °FLight rain. Overcast.1 mph82%29.99 "Hg4 mi
6:00 PM43 °FOvercast.1 mph74%29.98 "Hg4 mi
5:00 PM44 °FOvercast.2 mph70%29.98 "Hg5 mi
4:00 PM43 °FLight rain. Overcast.1 mph74%30.00 "Hg5 mi
3:00 PM40 °FOvercast.1 mph76%30.01 "Hg2 mi
2:00 PM40 °FLight rain. Overcast.1 mph77%30.03 "Hg2 mi
1:00 PM39 °FOvercast.1 mph77%30.05 "Hg2 mi
12:00 PM39 °FFog.1 mph77%30.06 "Hg2 mi
11:00 AM37 °FFog.1 mph80%30.08 "Hg2 mi
10:00 AM36 °FFog.1 mph82%30.07 "Hg2 mi
9:00 AM35 °FFog.1 mph85%30.08 "Hg2 mi
8:00 AM34 °FFog.No wind87%30.08 "Hg2 mi
7:00 AM32 °FFog.1 mph87%30.07 "Hg2 mi
Weather by CustomWeather, © 2016

See weather overviewHow to use our weather pages